This is the latest recevied weather packets stored in our database for station/object WB0OCV. If no packets are shown the sender has not sent any weather packets the latest 10 day(s).
| Time | Temp. | Humidity | Pressure | Rain* | Wind** | Luminosity | Snow |
|---|---|---|---|---|---|---|---|
| 1778104679 | 15.56° C | 87% | 1011.2 hPa | 0 mm | - | 25 W/m² | - |
| 1778104375 | 15.56° C | 86% | 1011.6 hPa | 0 mm | - | 52 W/m² | - |
| 1778104071 | 16.11° C | 84% | 1011.4 hPa | 0 mm | - | 70 W/m² | - |
| 1778103768 | 16.11° C | 84% | 1011.5 hPa | 0 mm | - | 77 W/m² | - |
| 1778103466 | 16.11° C | 84% | 1011.5 hPa | 0 mm | - | 107 W/m² | - |
| 1778103163 | 15.56° C | 85% | 1011.7 hPa | 0 mm | - | 134 W/m² | - |
| 1778102861 | 15.56° C | 86% | 1011.5 hPa | 0 mm | - | 103 W/m² | - |
| 1778102556 | 15.56° C | 85% | 1011.8 hPa | 0 mm | - | 71 W/m² | - |
| 1778102251 | 16.11° C | 85% | 1011.7 hPa | 0 mm | - | 98 W/m² | - |
| 1778101948 | 16.11° C | 83% | 1011.7 hPa | 0 mm | - | 61 W/m² | - |
| 1778101645 | 16.67° C | 81% | 1011.7 hPa | 0 mm | - | 96 W/m² | - |
| 1778101342 | 16.67° C | 81% | 1011.7 hPa | 0 mm | - | 152 W/m² | - |
| 1778101039 | 16.11° C | 81% | 1011.8 hPa | 0 mm | - | 124 W/m² | - |
| 1778100734 | 16.67° C | 81% | 1011.5 hPa | 0 mm | - | 122 W/m² | - |
| 1778100432 | 16.11° C | 82% | 1011.7 hPa | 0 mm | - | 117 W/m² | - |
| 1778100129 | 16.11° C | 82% | 1011.6 hPa | 0 mm | - | 81 W/m² | - |
| 1778099827 | 16.67° C | 81% | 1012 hPa | 0 mm | - | 98 W/m² | - |
| 1778099524 | 16.67° C | 80% | 1012.1 hPa | 0 mm | - | 108 W/m² | - |
| 1778099222 | 16.67° C | 80% | 1012 hPa | 0 mm | - | 77 W/m² | - |
| 1778098917 | 16.67° C | 79% | 1012.1 hPa | 0 mm | - | 91 W/m² | - |
| 1778098615 | 17.22° C | 79% | 1011.9 hPa | 0 mm | - | 96 W/m² | - |
| 1778098311 | 17.22° C | 78% | 1012 hPa | 0 mm | - | 142 W/m² | - |
| 1778098008 | 17.22° C | 78% | 1012.3 hPa | 0 mm | - | 159 W/m² | - |
| 1778097704 | 16.67° C | 78% | 1012.2 hPa | 0 mm | - | 210 W/m² | - |
| 1778097401 | 16.67° C | 79% | 1012.3 hPa | 0 mm | - | 101 W/m² | - |
* Rain latest hour (hover to see other rain measurements)
** Current wind speed in m/s (hover to see current wind gust speed)